Location: Domont
(49.0278°N, 2.3264°E)
Time: 23:24:56
(UTC+00:00)

DIWATA 2B (PO-101) - Visible Passes

Search period start: 27 June 2022 00:00
Search period end: 07 July 2022 00:00
Orbit: 585 x 597 km, 98.0° (Epoch: 27 June)

Date Brightness Start Highest point End Pass type
(mag) Time Alt. Az. Time Alt. Az. Time Alt. Az.
27 Jun ? 01:05:39 12° SE 01:09:22 46° ENE 01:13:25 10° N visible
27 Jun ? 02:42:13 11° SW 02:45:07 20° W 02:48:16 10° NW visible
28 Jun ? 01:14:06 13° SSE 01:17:41 55° ENE 01:21:49 10° N visible
28 Jun ? 02:50:47 10° SW 02:53:32 17° W 02:56:19 10° NW visible
29 Jun ? 01:22:33 15° SSE 01:26:00 67° ENE 01:30:12 10° N visible
29 Jun ? 02:59:43 10° WSW 03:01:59 14° W 03:04:15 10° NW visible
29 Jun ? 23:58:13 10° ENE 23:59:32 11° NE 00:00:51 10° NE visible
30 Jun ? 01:31:01 16° SSE 01:34:20 81° ENE 01:38:34 10° NNW visible
01 Jul ? 00:05:44 10° E 00:07:46 13° ENE 00:09:47 10° NNE visible
01 Jul ? 01:39:28 17° SSE 01:42:40 84° WSW 01:46:55 10° NNW visible
02 Jul ? 00:13:30 10° E 00:16:00 16° ENE 00:18:30 10° NNE visible
02 Jul ? 01:47:56 18° S 01:51:01 69° WSW 01:55:14 10° NNW visible
03 Jul ? 00:21:22 10° ESE 00:24:15 18° ENE 00:27:08 10° NNE visible
03 Jul ? 01:56:23 18° S 01:59:23 57° W 02:03:33 10° NNW visible
04 Jul ? 00:29:20 10° ESE 00:32:30 21° ENE 00:35:42 10° NNE visible
04 Jul ? 02:04:50 18° SSW 02:07:45 46° W 02:11:50 10° NNW visible
05 Jul ? 00:37:20 10° ESE 00:40:46 25° ENE 00:44:13 10° N visible
05 Jul ? 02:13:18 17° SSW 02:16:07 38° W 02:20:05 10° NNW visible
06 Jul ? 00:45:24 10° SE 00:49:02 29° ENE 00:52:43 10° N visible
06 Jul ? 02:21:46 16° SSW 02:24:30 32° W 02:28:19 10° NNW visible
